Marshalltown, IA

2:04 AM CST on November 20, 2017 (GMT -0600)
Marshalltown Municipal

Weather History for KMIW - July, 2014

Change the Weather History Date:

Friday, July 25, 2014

  Actual Average Record
Temperature  
Mean Temperature 71 °F 73 °F  
Max Temperature 79 °F 84 °F 102 °F (2012)
Min Temperature 63 °F 62 °F 46 °F (2004)
Degree Days  
Heating Degree Days 0 0  
Month to date heating degree days 18 0  
Since 1 June heating degree days 25 28  
Since 1 July heating degree days 18 0  
Cooling Degree Days 6 8  
Month to date cooling degree days 120 200  
Year to date cooling degree days 375 413  
Since 1 June cooling degree days 296 363  
Growing Degree Days 20 (Base 50)    
Moisture  
Dew Point 64 °F    
Average Humidity 80    
Maximum Humidity 93    
Minimum Humidity 67    
Precipitation  
Precipitation 1.08 in 0.10 in 1.14 in (2013)
Month to date precipitation 2.74 3.58  
Sea Level Pressure  
Sea Level Pressure 29.91 in    
Wind  
Wind Speed 12 mph (SSE)    
Max Wind Speed 29 mph    
Max Gust Speed 38 mph    
Visibility 8 miles    
Events Rain , Thunderstorm    
T = Trace of Precipitation, MM = Missing Value Source: NWS Daily Summary

Daily Weather History Graph

Daily Weather History Graph

Search for Another Location

Airport or City:

Trip Planner

Search our weather history database for the weather conditions in past years. The results will help you decide how hot, cold, wet, or windy it might be!

Date:

Astronomy

Jul. 25, 2014 Rise Set
Actual Time 5:57 AM CDT 8:37 PM CDT
Civil Twilight 5:25 AM CDT 9:10 PM CDT
Nautical Twilight 4:45 AM CDT 9:50 PM CDT
Astronomical Twilight 3:58 AM CDT 10:36 PM CDT
Moon 4:58 AM CDT (7/25) 7:34 PM CDT (7/25)
Length of Visible Light 15h 44m
Length of Day
14h 39m
Waning Crescent, 1% of the Moon is Illuminated
Jul 25
Waning Crescent
Jul 26
New
Aug 3
First Quarter
Aug 10
Full
Aug 17
Last Quarter

Hourly Weather History & Observations

Time (CDT) Temp. Dew Point Humidity Pressure Visibility Wind Dir Wind Speed Gust Speed Precip Events Conditions
12:53 AM 64.9 °F 60.1 °F 84% 29.96 in 10.0 mi SE 11.5 mph - N/A   Clear
1:53 AM 64.9 °F 57.9 °F 78% 29.89 in 10.0 mi SE 16.1 mph - N/A   Clear
2:22 AM 66.0 °F 57.9 °F 75% 29.96 in 10.0 mi SSE 8.1 mph 18.4 mph N/A Thunderstorm Thunderstorm
2:41 AM 64.9 °F 59.0 °F 81% 30.01 in 1.8 mi SE 4.6 mph - 0.13 in Rain , Thunderstorm Heavy Thunderstorms and Rain
2:53 AM 63.0 °F 60.1 °F 90% 29.99 in 4.0 mi SSE 11.5 mph - 0.21 in Rain , Thunderstorm Light Thunderstorms and Rain
3:33 AM 63.0 °F 61.0 °F 93% 30.00 in 2.0 mi SSE 11.5 mph - 0.17 in Rain , Thunderstorm Thunderstorms and Rain
3:42 AM 63.0 °F 61.0 °F 93% 30.00 in 8.0 mi Calm Calm - 0.18 in Rain , Thunderstorm Light Thunderstorms and Rain
3:53 AM 63.0 °F 60.1 °F 90% 29.98 in 6.0 mi South 9.2 mph - 0.20 in Rain , Thunderstorm Light Rain
4:11 AM 63.0 °F 60.1 °F 90% 29.97 in 6.0 mi South 20.7 mph - 0.04 in Rain , Thunderstorm Thunderstorms and Rain
4:43 AM 63.0 °F 62.1 °F 97% 29.99 in 2.0 mi South 10.4 mph 28.8 mph 0.28 in Rain , Thunderstorm Heavy Thunderstorms and Rain
4:53 AM 63.0 °F 62.1 °F 97% 29.98 in 2.5 mi SSE 6.9 mph - 0.35 in Rain , Thunderstorm Heavy Thunderstorms and Rain
5:01 AM 63.0 °F 62.1 °F 97% 30.01 in 3.0 mi SSW 8.1 mph - 0.05 in Rain , Thunderstorm Heavy Thunderstorms and Rain
5:07 AM 63.0 °F 62.1 °F 97% 30.04 in 2.5 mi WSW 5.8 mph - 0.09 in Rain , Thunderstorm Heavy Rain
5:13 AM 63.0 °F 62.1 °F 97% 30.03 in 1.5 mi South 4.6 mph - 0.15 in Rain , Thunderstorm Heavy Thunderstorms and Rain
5:21 AM 63.0 °F 62.1 °F 97% 30.02 in 3.0 mi South 8.1 mph - 0.17 in Rain , Thunderstorm Thunderstorms and Rain
5:34 AM 63.0 °F 62.1 °F 97% 30.02 in 6.0 mi South 13.8 mph - 0.19 in Rain , Thunderstorm Light Rain
5:48 AM 62.6 °F 62.6 °F 100% 29.99 in 5.0 mi SSE 16.1 mph 26.5 mph 0.23 in Rain , Thunderstorm Light Rain
5:53 AM 63.0 °F 62.1 °F 97% 29.99 in 7.0 mi South 15.0 mph 23.0 mph 0.24 in Rain , Thunderstorm Light Rain
6:27 AM 64.9 °F 64.0 °F 97% 29.95 in 10.0 mi South 15.0 mph - 0.02 in Rain Light Rain
6:53 AM 64.9 °F 63.0 °F 93% 29.89 in 10.0 mi SSE 17.3 mph - 0.02 in   Scattered Clouds
7:23 AM 66.0 °F 63.0 °F 90% 29.91 in 10.0 mi South 12.7 mph - 0.00 in Thunderstorm Thunderstorm
7:44 AM 64.0 °F 62.1 °F 93% 29.92 in 9.0 mi SSE 18.4 mph 25.3 mph 0.01 in Rain , Thunderstorm Light Rain
7:53 AM 64.0 °F 62.1 °F 93% 29.91 in 10.0 mi SSE 18.4 mph - 0.02 in Rain Light Rain
8:19 AM 64.9 °F 62.1 °F 90% 29.94 in 10.0 mi SSE 11.5 mph 24.2 mph 0.00 in Rain , Thunderstorm Light Rain
8:49 AM 64.4 °F 62.6 °F 94% 29.97 in 10.0 mi SSE 15.0 mph - 0.02 in Rain Light Rain
8:53 AM 64.9 °F 63.0 °F 93% 29.98 in 10.0 mi SSE 15.0 mph - 0.02 in Rain Light Rain
9:04 AM 64.0 °F 62.1 °F 93% 29.99 in 10.0 mi SE 10.4 mph - 0.00 in Rain Light Rain
9:16 AM 64.0 °F 62.1 °F 93% 29.97 in 10.0 mi SSE 11.5 mph - 0.00 in Rain , Thunderstorm Light Rain
9:39 AM 64.0 °F 63.0 °F 96% 29.93 in 5.0 mi SE 15.0 mph - 0.02 in Rain , Thunderstorm Light Rain
9:44 AM 64.0 °F 63.0 °F 96% 29.93 in 7.0 mi SE 12.7 mph - 0.02 in Rain Light Rain
9:53 AM 64.0 °F 63.0 °F 96% 29.90 in 10.0 mi SSE 16.1 mph 21.9 mph 0.02 in   Overcast
10:07 AM 64.9 °F 63.0 °F 93% 29.89 in 10.0 mi SSE 20.7 mph - N/A   Overcast
10:26 AM 66.9 °F 64.0 °F 90% 29.87 in 10.0 mi SSE 21.9 mph 29.9 mph N/A   Scattered Clouds
10:53 AM 71.1 °F 64.9 °F 81% 29.86 in 10.0 mi South 13.8 mph - N/A   Partly Cloudy
12:53 PM 75.0 °F 64.0 °F 69% 29.78 in 10.0 mi South 25.3 mph 34.5 mph N/A   Clear
1:53 PM 77.0 °F 66.0 °F 69% 29.81 in 10.0 mi South 10.4 mph 20.7 mph N/A   Mostly Cloudy
2:53 PM 78.1 °F 66.9 °F 68% 29.80 in 10.0 mi South 16.1 mph 24.2 mph N/A   Overcast
3:53 PM 77.0 °F 68.0 °F 74% 29.80 in 10.0 mi South 8.1 mph - N/A   Overcast
4:05 PM 77.0 °F 69.1 °F 76% 29.81 in 10.0 mi South 8.1 mph - N/A   Overcast
4:53 PM 77.0 °F 69.1 °F 76% 29.80 in 10.0 mi SSW 10.4 mph - N/A   Overcast
5:53 PM 78.1 °F 69.1 °F 74% 29.80 in 10.0 mi SSW 8.1 mph - N/A   Overcast
6:53 PM 77.0 °F 69.1 °F 76% 29.79 in 10.0 mi South 6.9 mph - N/A   Overcast
7:51 PM 75.2 °F 69.8 °F 83% 29.80 in 10.0 mi SE 5.8 mph - N/A   Scattered Clouds
7:53 PM 75.9 °F 69.1 °F 79% 29.78 in 10.0 mi SE 6.9 mph - N/A   Scattered Clouds
8:03 PM 75.0 °F 70.0 °F 84% 29.79 in 10.0 mi ESE 6.9 mph - N/A   Mostly Cloudy
8:53 PM 73.0 °F 70.0 °F 90% 29.78 in 10.0 mi ESE 5.8 mph - N/A   Overcast
9:53 PM 73.0 °F 70.0 °F 90% 29.79 in 10.0 mi ESE 5.8 mph - N/A   Overcast
10:53 PM 73.9 °F 70.0 °F 87% 29.80 in 10.0 mi SE 8.1 mph - N/A   Overcast
11:53 PM 73.0 °F 70.0 °F 90% 29.80 in 10.0 mi ESE 5.8 mph - N/A   Overcast